Location: Deerlick Astronomy Village
(33.5614°N, 82.7631°W)
Time: 15:28:28
(UTC-04:00)

Iridium 66 - Visible Passes

Search period start: 27 May 2018 00:00
Search period end: 06 June 2018 00:00
Orbit: 761 x 765 km, 86.4° (Epoch: 27 May)

Date Brightness Start Highest point End Pass type
(mag) Time Alt. Az. Time Alt. Az. Time Alt. Az.
27 May 7.5 01:52:02 10° N 01:54:59 32° NNE 01:54:59 32° NNE visible
27 May 8.3 03:34:08 10° NW 03:35:08 13° WNW 03:35:08 13° WNW visible
28 May 8.1 01:15:01 10° NNE 01:17:13 19° NE 01:17:13 19° NE visible
28 May 7.7 02:54:53 10° NNW 02:57:22 24° NW 02:57:22 24° NW visible
29 May 7.3 02:16:37 10° N 02:19:36 35° NNW 02:19:36 35° NNW visible
30 May 7.5 01:38:53 10° N 01:41:50 32° NNE 01:41:50 32° NNE visible
30 May 8.4 03:21:22 10° NW 03:22:00 11° WNW 03:22:00 11° WNW visible
31 May 8.0 01:01:47 10° NNE 01:04:05 20° NE 01:04:05 20° NE visible
31 May 7.8 02:41:54 10° NNW 02:44:15 22° NW 02:44:15 22° NW visible
01 Jun 7.4 02:03:32 10° N 02:06:29 34° NNW 02:06:29 34° NNW visible
02 Jun 7.4 01:25:45 10° N 01:28:45 34° NNE 01:28:45 34° NNE visible
02 Jun 8.5 03:08:41 10° WNW 03:08:54 10° WNW 03:08:54 10° WNW visible
03 Jun 7.9 00:48:34 10° NNE 00:51:00 21° NE 00:51:00 21° NE visible
03 Jun 7.9 02:28:53 10° NNW 02:31:10 21° NW 02:31:10 21° NW visible
04 Jun 8.5 00:12:43 10° NE 00:13:16 11° ENE 00:13:16 11° ENE visible
04 Jun 7.4 01:50:28 10° N 01:53:26 34° NNW 01:53:26 34° NNW visible
05 Jun 7.3 01:12:37 10° N 01:15:42 36° NNE 01:15:42 36° NNE visible
